Change the Weather History Date:

Tuesday, October 22, 2013

  Actual Average Record
Temperature  
Mean Temperature 66 °F -  
Max Temperature 79 °F 69 °F 97 °F (2014)
Min Temperature 54 °F 52 °F 46 °F (1998)
Cooling Degree Days 2    
Growing Degree Days 16 (Base 50)    
Moisture  
Dew Point 56 °F    
Average Humidity 66    
Maximum Humidity 94    
Minimum Humidity 28    
Precipitation  
Precipitation 0.00 in 0.11 in - ()
Sea Level Pressure  
Sea Level Pressure 29.99 in    
Wind  
Wind Speed 3 mph ()    
Max Wind Speed 10 mph    
Max Gust Speed -    
Visibility 4.4 miles    
Events      
Averages and records for this station are not official NWS values.
T = Trace of Precipitation, MM = Missing Value Source: Averaged Metar Reports

Daily Weather History Graph

Daily Weather History Graph

Search for Another Location

Airport or City:

Trip Planner

Search our weather history database for the weather conditions in past years. The results will help you decide how hot, cold, wet, or windy it might be!

Date:

Astronomy

Oct. 22, 2013 Rise Set
Actual Time 7:37 AM WEST 6:44 PM WEST
Civil Twilight 7:12 AM WEST 7:09 PM WEST
Nautical Twilight 6:43 AM WEST 7:39 PM WEST
Astronomical Twilight 6:14 AM WEST 8:08 PM WEST
Moon 9:20 PM WEST (10/22) 10:47 AM WEST (10/22)
Length of Visible Light 11h 57m
Length of Day
11h 06m
Waning Gibbous, 88% of the Moon is Illuminated
Oct 22
Waning Gibbous
Oct 27
Last Quarter
Nov 3
New
Nov 10
First Quarter
Nov 17
Full

Hourly Weather History & Observations

Time (WEST) Temp. Dew Point Humidity Pressure Visibility Wind Dir Wind Speed Gust Speed Precip Events Conditions
12:00 AM 64.4 °F 62.6 °F 94% 30.01 in 3.7 mi Variable 2.3 mph - N/A   Unknown
12:30 AM 62.6 °F 59.0 °F 88% 30.01 in 3.7 mi Calm Calm - N/A   Unknown
1:00 AM 62 °F 60 °F 90% 30.02 in 4 mi Calm Calm - -   Clear
1:00 AM 62.6 °F 59.0 °F 88% 30.01 in 3.7 mi Calm Calm - N/A   Unknown
2:00 AM 60.8 °F 59.0 °F 94% 30.01 in 3.7 mi Calm Calm - N/A   Scattered Clouds
3:00 AM 60.8 °F 59.0 °F 94% 30.01 in 3.7 mi Calm Calm - N/A   Scattered Clouds
4:00 AM 62 °F 60 °F 89% 30.00 in 4 mi Calm Calm - -   Partly Cloudy
4:00 AM 60.8 °F 59.0 °F 94% 29.98 in 3.7 mi Calm Calm - N/A   Scattered Clouds
5:00 AM 62.6 °F 59.0 °F 88% 29.98 in 3.7 mi Calm Calm - N/A   Scattered Clouds
6:00 AM 62.6 °F 59.0 °F 88% 29.98 in 3.7 mi Calm Calm - N/A   Scattered Clouds
6:30 AM 60.8 °F 57.2 °F 88% 29.98 in 3.7 mi Calm Calm - N/A   Scattered Clouds
7:00 AM 60 °F 57 °F 87% 29.99 in 4 mi Calm Calm - -   Partly Cloudy
7:00 AM 60.8 °F 57.2 °F 88% 29.98 in 3.7 mi Calm Calm - N/A   Scattered Clouds
7:30 AM 60.8 °F 57.2 °F 88% 29.98 in 3.7 mi Calm Calm - N/A   Scattered Clouds
8:00 AM 59.0 °F 55.4 °F 88% 29.98 in 3.7 mi Calm Calm - N/A   Scattered Clouds
8:30 AM 62.6 °F 59.0 °F 88% 29.98 in 3.7 mi Calm Calm - N/A   Scattered Clouds
9:00 AM 64.4 °F 59.0 °F 83% 29.98 in 3.7 mi Calm Calm - N/A   Scattered Clouds
9:30 AM 66.2 °F 57.2 °F 73% 29.98 in 3.7 mi Calm Calm - N/A   Mostly Cloudy
10:00 AM 68 °F 56 °F 58% 30.00 in 4 mi Calm Calm - -   Partly Cloudy
10:00 AM 68.0 °F 57.2 °F 68% 29.98 in 3.7 mi Calm Calm - N/A   Mostly Cloudy
11:00 AM 71.6 °F 51.8 °F 50% 30.01 in 3.7 mi Calm Calm - N/A   Mostly Cloudy
11:30 AM 71.6 °F 51.8 °F 50% 30.01 in 3.7 mi Calm Calm - N/A   Mostly Cloudy
12:00 PM 75.2 °F 48.2 °F 38% 30.01 in 5.0 mi SW 10.4 mph - N/A   Unknown
1:00 PM 76 °F 49 °F 28% 29.98 in 5 mi SW 9.2 mph - -   Mostly Cloudy
1:00 PM 77.0 °F 50.0 °F 39% 29.98 in 5.0 mi SW 9.2 mph - N/A   Unknown
1:30 PM 77.0 °F 48.2 °F 36% 29.98 in 5.0 mi West 6.9 mph - N/A   Unknown
2:00 PM 78.8 °F 50.0 °F 36% 29.95 in 5.0 mi West 5.8 mph - N/A   Unknown
2:30 PM 77.0 °F 48.2 °F 36% 29.95 in 5.0 mi West 8.1 mph - N/A   Unknown
3:00 PM 77.0 °F 50.0 °F 39% 29.95 in 5.0 mi West 8.1 mph - N/A   Unknown
3:30 PM 75.2 °F 51.8 °F 44% 29.95 in 5.0 mi West 9.2 mph - N/A   Unknown
4:00 PM 74 °F 53 °F 37% 29.96 in 5 mi West 8.1 mph - -   Mostly Cloudy
4:00 PM 73.4 °F 53.6 °F 50% 29.95 in 5.0 mi West 8.1 mph - N/A   Unknown
4:30 PM 75.2 °F 53.6 °F 47% 29.95 in 5.0 mi WSW 6.9 mph - N/A   Unknown
5:00 PM 75.2 °F 51.8 °F 44% 29.95 in 5.0 mi WSW 8.1 mph - N/A   Unknown
5:30 PM 75.2 °F 53.6 °F 47% 29.95 in 5.0 mi West 8.1 mph - N/A   Unknown
6:00 PM 73.4 °F 53.6 °F 50% 29.95 in 5.0 mi WSW 8.1 mph - N/A   Unknown
6:30 PM 71.6 °F 55.4 °F 57% 29.98 in 5.0 mi WSW 8.1 mph - N/A   Unknown
7:00 PM 72 °F 55 °F 45% 29.97 in 5 mi SW 8.1 mph - -   Mostly Cloudy
7:00 PM 71.6 °F 55.4 °F 57% 29.98 in 5.0 mi SW 8.1 mph - N/A   Unknown
7:30 PM 71.6 °F 55.4 °F 57% 29.98 in 5.0 mi SW 8.1 mph - N/A   Unknown
8:00 PM 69.8 °F 55.4 °F 60% 29.98 in 5.0 mi SW 8.1 mph - N/A   Unknown
8:30 PM 69.8 °F 57.2 °F 64% 29.98 in 5.0 mi WSW 8.1 mph - N/A   Unknown
9:00 PM 69.8 °F 59.0 °F 68% 30.01 in 5.0 mi WSW 9.2 mph - N/A   Unknown
9:30 PM 69.8 °F 60.8 °F 73% 30.01 in 5.0 mi WSW 9.2 mph - N/A   Unknown
10:00 PM 70 °F 62 °F 68% 30.01 in 5 mi WSW 6.9 mph - -   Partly Cloudy
10:00 PM 69.8 °F 62.6 °F 78% 30.01 in 5.0 mi WSW 6.9 mph - N/A   Unknown
10:30 PM 69.8 °F 62.6 °F 78% 30.04 in 5.0 mi WSW 6.9 mph - N/A   Unknown
11:00 PM 69.8 °F 62.6 °F 78% 30.04 in 5.0 mi SW 9.2 mph - N/A   Unknown
11:30 PM 69.8 °F 62.6 °F 78% 30.04 in 5.0 mi SW 6.9 mph - N/A   Unknown